Temp
68 66 66 65 66 68 68 69 69 69 69 69 68 68 67 67 67 66 66 66 66 66 67 68 67 68 68 68 68 68 67 64 58 58 59 60 59 59 60 61 61 61 62
67 66 65 65 66 67 68 69 69 69 69 69 68 67 66 66 64 64 64 65 65 65 66 67 66 67 66 66 66 65 63 63 61 57 58 57 58 59 59 59 59 61 63
67 66 65 65 66 67 67 68 68 68 68 68 67 66 66 65 64 63 63 63 63 64 65 65 65 65 64 64 64 63 63 63 63 59 56 57 57 58 57 58 59 58 63
66 66 66 66 67 67 67 67 67 67 67 67 67 67 67 66 65 64 63 63 63 63 64 64 65 65 64 63 63 64 63 63 61 59 57 57 57 57 57 56 56 60 58
65 65 66 66 67 67 67 67 67 67 67 66 65 66 66 67 67 64 64 63 63 62 62 64 65 66 64 63 63 62 62 61 60 58 56 56 56 56 55 58 57 57 56
65 65 66 67 67 67 67 67 67 67 66 66 65 65 65 68 61 61 64 64 63 63 62 62 64 64 64 62 62 62 64 61 60 59 58 56 57 58 58 59 57 57 57
65 66 67 67 66 66 67 67 67 66 67 65 63 64 64 64 59 59 62 64 64 63 62 63 64 64 63 63 61 61 62 62 63 63 60 59 58 59 60 59 58 58 59
65 67 68 67 67 66 66 66 66 66 65 64 63 63 63 62 57 57 60 64 63 62 62 62 62 61 62 62 62 61 61 62 63 65 63 62 63 63 62 63 61 58 60
66 67 68 68 67 66 66 66 66 66 65 64 64 63 63 63 56 55 60 62 62 61 61 61 61 61 57 56 61 59 58 59 58 57 58 57 57 57 61 63 59 59 56
67 68 68 68 67 66 66 66 66 66 66 65 65 64 61 63 55 53 59 63 61 61 59 59 59 59 55 54 60 59 58 58 60 60 60 58 58 59 58 63 63 62 59
68 69 68 68 67 68 67 65 65 66 65 65 64 64 63 61 61 52 53 63 63 61 61 60 60 55 51 51 53 58 58 56 57 59 59 59 59 59 60 60 61 63 61
67 68 68 68 67 66 65 65 65 64 64 63 63 63 63 63 55 54 52 55 59 62 61 61 60 52 49 49 54 52 50 55 59 59 59 59 59 60 59 59 58 60 62
65 66 67 68 66 66 65 64 64 64 63 63 62 63 62 62 61 52 51 53 54 59 63 58 54 49 48 50 51 51 52 59 59 59 59 60 60 61 59 58 58 58 58
65 65 65 65 65 65 65 66 65 64 63 63 63 62 62 62 62 60 57 57 54 57 58 57 55 55 53 56 56 55 59 59 59 60 60 61 58 57 59 59 59 58 60
64 64 64 64 64 62 60 61 63 59 59 63 63 63 62 62 63 57 56 58 57 57 55 54 54 55 56 57 57 57 57 57 57 57 57 58 58 58 58 57 57 56 58
63 63 63 62 62 61 61 59 52 51 48 46 44 52 59 52 48 47 47 48 48 48 52 52 52 52 54 57 57 57 57 56 57 57 57 58 58 58 58 56 56 57 58
62 62 62 61 62 60 61 62 62 56 46 45 43 43 42 45 43 43 43 44 45 48 54 52 53 53 55 57 56 57 58 57 56 57 58 57 58 58 56 57 58 58 58
61 55 61 62 62 62 62 62 62 61 59 60 47 46 43 42 42 42 41 44 46 48 56 55 55 54 54 56 57 55 59 58 57 58 57 57 57 58 57 57 57 58 59
61 61 61 61 60 59 61 61 61 60 59 59 58 50 46 41 41 41 41 54 54 52 53 54 55 53 53 52 57 57 57 59 58 58 57 57 58 57 58 60 60 52 54
62 58 58 60 60 61 61 61 60 59 60 59 58 59 56 50 54 54 49 52 56 56 55 55 54 53 53 54 54 54 54 56 59 59 59 59 60 59 60 60 59 59 57
62 62 58 61 60 61 61 61 61 61 61 61 61 61 50 58 58 57 56 53 54 56 57 56 56 55 54 53 52 53 54 59 59 60 61 61 60 59 59 61 62 61 62
61 61 61 61 61 60 60 61 61 61 61 62 63 61 45 54 56 57 59 59 59 59 60 58 56 56 57 55 54 53 55 59 60 60 60 60 60 60 62 61 61 61 62
61 61 61 61 61 57 61 62 61 61 61 61 61 61 60 57 57 57 56 57 57 58 59 60 60 60 60 59 58 59 61 60 62 62 61 61 60 60 61 59 60 61 60
60 60 60 60 59 61 61 61 62 54 56 58 57 58 59 58 58 57 57 58 58 59 59 59 59 59 60 60 61 62 62 63 63 63 61 59 58 56 60 60 60 60 61
59 59 59 59 59 59 58 57 56 56 55 54 53 54 55 56 55 56 56 57 57 58 57 57 58 57 56 58 60 61 56 41 53 54 60 59 58 57 57 58 58 59 57
59 59 58 56 55 56 55 53 53 53 54 54 55 56 56 56 56 56 56 57 57 56 56 57 55 54 52 49 46 39 35 34 41 37 51 57 55 53 52 53 51 48 48
MSLP
1012.38 1012.93 1012.97 1013.50 1013.57 1013.57 1013.70 1013.68 1013.90 1014.49 1014.82 1014.86 1015.15 1015.25 1015.38 1015.48 1015.45 1015.53 1015.71 1015.71 1015.67 1015.65 1015.34 1015.05 1014.79 1014.80 1014.72 1014.84 1015.17 1015.39 1015.82 1016.36 1017.86 1019.15 1019.50 1019.91 1020.08 1020.09 1020.35 1020.53 1020.63 1020.69 1020.90
1011.99 1012.58 1012.93 1013.32 1013.53 1013.67 1013.65 1013.82 1014.26 1014.76 1015.03 1015.15 1015.33 1015.49 1015.66 1015.70 1015.76 1015.73 1015.85 1015.79 1015.66 1015.75 1015.62 1015.32 1015.18 1015.11 1015.06 1015.22 1015.38 1015.74 1016.14 1016.55 1017.36 1018.73 1019.68 1020.08 1020.41 1020.62 1020.72 1020.92 1021.17 1021.28 1021.44
1012.08 1012.05 1012.67 1012.99 1013.34 1013.71 1014.14 1014.08 1014.35 1014.86 1015.14 1015.39 1015.46 1015.87 1015.99 1016.07 1016.10 1015.95 1015.87 1015.92 1016.06 1016.29 1016.17 1016.00 1015.79 1015.51 1015.48 1015.73 1015.80 1016.05 1016.46 1016.82 1017.34 1018.31 1019.42 1020.20 1020.66 1020.94 1021.16 1021.36 1021.59 1021.73 1021.83
1011.82 1012.18 1012.83 1013.12 1013.43 1013.50 1013.93 1014.24 1014.44 1014.63 1014.99 1015.51 1015.70 1015.89 1016.28 1016.39 1016.48 1016.46 1016.41 1016.55 1016.64 1016.76 1016.70 1016.45 1016.33 1016.06 1016.01 1016.11 1016.23 1016.37 1016.79 1017.14 1017.75 1018.56 1019.47 1020.13 1020.57 1021.08 1021.24 1021.45 1021.92 1022.24 1022.41
1011.90 1012.51 1013.03 1013.44 1013.71 1013.83 1014.19 1014.49 1014.56 1014.89 1014.90 1015.18 1015.69 1016.11 1016.29 1016.56 1016.74 1016.82 1016.82 1016.79 1016.81 1017.02 1016.97 1016.77 1016.71 1016.53 1016.38 1016.43 1016.63 1016.86 1017.12 1017.44 1017.95 1018.63 1019.32 1020.00 1020.50 1020.98 1021.11 1021.29 1021.64 1022.16 1022.55
1012.65 1012.56 1013.12 1013.42 1014.05 1014.25 1014.41 1014.60 1014.86 1014.95 1015.26 1015.31 1015.53 1016.01 1016.41 1016.53 1016.72 1016.87 1016.86 1017.03 1017.04 1017.10 1017.24 1017.18 1017.18 1017.05 1017.01 1016.89 1016.93 1017.15 1017.30 1017.43 1017.87 1018.44 1019.03 1019.48 1020.04 1020.38 1020.66 1020.92 1021.38 1021.85 1022.24
1011.77 1012.60 1013.13 1013.46 1013.67 1014.03 1014.53 1014.66 1014.80 1015.05 1015.27 1015.53 1015.50 1015.78 1016.29 1016.58 1016.85 1017.01 1017.06 1017.12 1017.28 1017.40 1017.43 1017.58 1017.51 1017.53 1017.40 1017.32 1017.50 1017.71 1017.84 1017.76 1017.89 1018.13 1018.52 1018.98 1019.41 1019.69 1020.06 1020.66 1020.93 1021.26 1021.48
1012.00 1012.68 1012.92 1013.44 1013.78 1013.98 1014.31 1014.77 1014.96 1015.01 1015.10 1015.63 1015.91 1015.55 1015.70 1016.14 1016.60 1016.96 1017.17 1017.20 1017.28 1017.49 1017.56 1017.67 1017.78 1017.74 1017.71 1017.64 1017.66 1017.91 1018.19 1018.16 1018.15 1018.22 1018.42 1018.69 1018.83 1019.25 1019.64 1019.99 1020.39 1021.04 1021.45
1012.18 1012.72 1012.88 1012.97 1013.49 1014.01 1014.08 1014.30 1014.85 1015.00 1015.32 1015.52 1015.62 1015.93 1015.97 1015.95 1016.38 1016.85 1017.15 1017.31 1017.36 1017.50 1017.61 1017.62 1017.72 1017.90 1017.86 1017.88 1017.97 1018.10 1018.40 1018.55 1018.57 1018.52 1018.63 1018.88 1019.14 1019.36 1019.52 1019.94 1020.49 1020.76 1021.19
1012.26 1012.93 1012.62 1012.96 1012.92 1013.83 1013.80 1014.07 1014.19 1014.73 1015.26 1015.84 1015.90 1015.85 1015.89 1016.04 1016.18 1016.57 1016.88 1017.08 1017.23 1017.39 1017.58 1017.66 1017.77 1017.86 1017.97 1018.09 1018.25 1018.27 1018.47 1018.63 1018.65 1018.89 1019.12 1019.31 1019.47 1019.66 1019.85 1019.74 1019.99 1020.12 1020.64
1011.70 1012.40 1012.23 1012.74 1013.01 1013.19 1014.01 1013.93 1013.99 1014.12 1014.66 1015.28 1015.59 1016.01 1015.94 1015.90 1016.24 1016.40 1016.69 1016.91 1016.85 1017.08 1017.33 1017.66 1017.78 1017.83 1017.99 1018.16 1018.22 1018.23 1018.26 1018.63 1018.91 1019.00 1019.27 1019.57 1019.72 1019.84 1019.99 1020.13 1020.05 1020.01 1020.18
1011.83 1011.90 1011.94 1012.31 1012.70 1012.78 1013.41 1013.54 1013.94 1014.40 1014.80 1015.02 1015.32 1015.39 1015.59 1015.75 1016.01 1016.29 1016.50 1016.53 1016.62 1016.82 1017.01 1017.27 1017.46 1017.61 1017.88 1018.11 1018.26 1018.22 1018.30 1018.73 1019.02 1019.22 1019.31 1019.49 1019.61 1019.79 1020.02 1020.09 1020.18 1020.13 1020.07
1011.32 1011.27 1011.88 1012.12 1012.13 1012.52 1012.99 1013.44 1013.73 1014.13 1014.51 1014.95 1015.21 1015.15 1015.05 1015.47 1015.79 1015.83 1015.90 1016.20 1016.56 1016.78 1016.71 1016.79 1017.00 1017.28 1017.60 1017.94 1018.02 1018.08 1018.18 1018.60 1018.89 1019.11 1019.10 1019.16 1019.33 1019.52 1019.87 1020.07 1020.20 1020.30 1020.31
1010.88 1010.97 1011.18 1011.85 1011.97 1012.39 1012.70 1012.59 1013.18 1013.69 1013.93 1014.28 1014.47 1014.56 1014.52 1014.80 1015.10 1015.47 1015.79 1015.98 1016.16 1016.37 1016.53 1016.66 1016.82 1016.96 1017.38 1017.65 1017.90 1018.14 1018.08 1018.23 1018.45 1018.54 1018.66 1018.86 1019.29 1019.52 1019.67 1019.88 1020.06 1020.26 1020.21
1010.38 1010.38 1010.80 1011.56 1011.95 1012.17 1012.54 1012.70 1013.13 1013.43 1013.54 1013.94 1014.09 1014.36 1014.52 1014.49 1014.49 1014.70 1014.88 1015.29 1015.41 1015.74 1016.28 1016.60 1016.90 1017.00 1017.13 1017.15 1017.32 1017.50 1017.74 1018.02 1018.20 1018.29 1018.49 1018.55 1018.78 1019.07 1019.31 1019.64 1019.84 1020.06 1019.95
1010.04 1010.09 1010.58 1011.57 1012.07 1012.41 1012.79 1013.23 1013.35 1013.44 1013.54 1013.65 1014.04 1013.99 1014.15 1014.52 1014.52 1014.51 1014.48 1014.56 1014.65 1015.10 1015.77 1016.05 1016.17 1016.33 1016.25 1016.33 1016.51 1016.73 1017.15 1017.31 1017.51 1017.77 1017.83 1017.84 1017.95 1018.26 1018.61 1019.22 1019.51 1019.55 1019.48
1009.88 1010.04 1011.21 1011.91 1012.45 1012.52 1012.77 1012.38 1013.07 1013.27 1013.59 1013.75 1014.12 1014.18 1014.14 1014.16 1014.61 1014.56 1014.29 1014.25 1014.49 1014.82 1014.90 1015.15 1015.42 1015.62 1015.65 1015.67 1015.85 1015.86 1016.10 1016.46 1016.69 1017.03 1017.13 1017.29 1017.55 1017.82 1018.17 1018.61 1018.93 1019.06 1019.03
1010.07 1010.39 1010.98 1011.67 1012.15 1012.32 1012.43 1012.67 1012.59 1012.83 1013.25 1013.65 1013.87 1013.97 1013.93 1013.96 1014.30 1014.52 1014.39 1014.54 1014.96 1014.92 1014.44 1014.49 1014.50 1014.70 1014.85 1014.93 1015.14 1015.47 1015.36 1015.86 1016.26 1016.39 1016.61 1016.77 1017.01 1017.19 1017.61 1017.93 1018.22 1018.26 1018.34
1010.38 1010.78 1011.08 1011.14 1011.22 1012.24 1012.54 1012.31 1012.20 1012.48 1012.84 1013.33 1013.33 1013.21 1013.44 1013.64 1013.99 1014.47 1014.88 1014.34 1014.19 1014.17 1014.04 1013.92 1013.79 1014.05 1014.27 1014.49 1014.58 1014.60 1014.89 1015.02 1015.41 1015.81 1016.05 1016.19 1016.32 1016.63 1016.77 1016.95 1017.18 1017.44 1017.69
1010.98 1010.94 1011.24 1010.99 1011.79 1012.21 1011.91 1011.88 1012.02 1012.40 1012.67 1012.77 1012.61 1012.36 1012.77 1013.29 1013.20 1013.35 1013.95 1014.08 1013.87 1013.59 1013.39 1013.53 1013.76 1013.68 1013.66 1013.81 1014.04 1014.17 1014.43 1014.62 1014.64 1014.92 1015.18 1015.32 1015.41 1015.57 1015.70 1015.91 1016.28 1016.59 1016.91
1010.93 1010.94 1010.82 1011.01 1011.30 1011.43 1011.25 1011.37 1011.85 1012.43 1012.35 1012.19 1012.12 1011.83 1011.95 1012.49 1012.48 1012.60 1012.97 1012.97 1013.05 1012.75 1012.81 1013.01 1012.81 1012.97 1013.29 1013.43 1013.69 1013.51 1013.73 1013.78 1013.84 1013.80 1014.04 1014.22 1014.44 1014.61 1014.71 1014.85 1015.17 1015.61 1015.81
1010.25 1010.32 1010.67 1010.83 1011.06 1011.23 1011.16 1011.21 1011.31 1011.85 1012.04 1011.96 1011.64 1011.51 1011.66 1012.01 1011.85 1012.01 1012.09 1012.16 1012.21 1012.40 1012.55 1012.62 1012.88 1012.39 1012.33 1012.60 1012.74 1012.78 1012.62 1012.57 1012.58 1012.75 1013.02 1013.11 1013.31 1013.38 1013.42 1013.75 1014.17 1014.59 1014.92
1009.97 1010.17 1010.24 1010.17 1010.54 1011.05 1011.30 1011.17 1011.42 1011.57 1011.65 1011.58 1011.57 1011.53 1011.71 1011.69 1011.74 1011.72 1011.98 1012.08 1012.16 1012.15 1012.10 1012.28 1012.01 1012.09 1011.86 1011.79 1011.93 1011.78 1011.53 1011.30 1011.22 1011.41 1011.71 1011.94 1012.06 1012.23 1012.37 1012.59 1013.00 1013.36 1013.76
1010.12 1010.18 1010.02 1010.00 1010.26 1010.77 1011.31 1011.35 1011.36 1011.84 1012.13 1012.20 1012.03 1011.63 1011.51 1011.30 1011.52 1011.48 1011.48 1011.65 1012.01 1012.04 1012.13 1012.07 1011.87 1011.83 1011.68 1011.41 1011.18 1010.99 1010.74 1010.38 1010.32 1010.36 1010.67 1010.86 1010.93 1011.12 1011.14 1011.52 1011.68 1012.14 1012.49
1009.92 1009.87 1009.93 1010.06 1010.32 1010.71 1011.57 1011.95 1012.27 1012.55 1012.72 1012.93 1012.75 1012.58 1012.66 1012.24 1011.83 1012.00 1012.18 1012.10 1012.22 1012.10 1012.04 1011.89 1011.97 1011.93 1011.49 1011.04 1010.63 1010.30 1010.10 1009.90 1009.83 1009.77 1009.70 1009.81 1009.92 1009.71 1010.36 1010.49 1010.59 1011.21 1011.82
1009.78 1010.19 1010.31 1010.47 1010.70 1011.16 1011.77 1012.33 1013.05 1013.10 1013.25 1013.19 1013.00 1012.81 1012.71 1012.78 1012.51 1012.32 1012.22 1012.20 1012.28 1012.58 1012.21 1012.05 1011.79 1011.66 1011.54 1011.32 1011.07 1010.70 1010.25 1009.75 1009.29 1009.23 1009.55 1009.64 1009.52 1009.06 1009.61 1010.18 1010.57 1010.53 1011.53
Wind_Speed
7 5 6 5 4 5 5 4 5 4 3 3 3 4 4 4 3 3 3 3 3 3 4 3 4 2 2 3 4 3 4 4 5 3 2 3 4 7 6 6 6 7 7
9 7 6 6 4 4 5 5 4 4 3 4 4 4 4 4 4 4 4 3 4 4 4 5 5 3 5 4 4 5 4 3 5 9 2 2 4 4 5 7 5 5 6
7 8 6 6 5 5 4 4 5 5 5 4 5 4 4 4 5 5 5 5 5 5 4 4 3 4 5 4 5 6 4 5 6 7 4 2 2 2 5 5 5 5 5
7 7 7 6 5 6 5 5 6 6 6 4 3 4 3 3 4 4 5 6 5 5 5 5 5 5 5 5 5 7 7 7 8 7 5 3 2 2 3 5 4 3 5
7 7 7 5 5 5 5 5 5 5 5 7 6 3 3 3 3 4 4 5 6 6 6 6 6 6 7 5 5 5 6 6 6 6 5 3 3 4 5 3 3 3 2
5 6 5 5 5 4 4 5 4 4 4 5 5 4 3 2 4 5 5 4 4 5 4 5 5 7 8 8 8 5 5 8 8 5 3 5 5 4 3 5 4 4 3
8 7 7 6 6 6 5 4 5 5 4 4 6 6 4 3 4 7 6 4 4 3 3 3 3 4 6 7 8 7 5 5 4 4 8 6 7 7 7 6 4 3 3
6 7 7 7 6 5 5 5 4 3 5 4 4 3 5 4 2 6 7 5 4 3 3 2 2 3 3 6 8 7 5 4 3 1 5 6 4 8 7 3 5 4 3
6 7 7 7 7 6 7 7 4 3 3 4 3 4 4 4 5 7 7 4 4 3 2 2 2 3 4 5 7 7 5 4 6 6 6 5 6 8 6 6 5 5 2
6 6 6 7 8 8 8 6 4 3 3 3 5 5 6 5 7 9 7 4 5 3 2 2 4 4 6 7 6 7 7 4 6 6 5 7 5 4 6 1 6 6 3
6 6 6 7 8 8 5 4 4 5 5 5 6 5 5 6 6 9 9 6 5 4 3 3 4 7 8 8 7 5 5 6 5 6 5 4 3 3 2 2 4 3 4
4 6 7 7 6 5 7 4 3 4 4 5 6 5 5 5 8 10 10 9 7 6 6 5 5 9 9 8 7 7 11 7 5 5 4 3 3 3 3 3 3 2 1
7 7 6 6 5 7 7 5 4 6 5 6 6 6 5 4 4 10 11 11 8 5 4 7 8 9 8 6 7 9 11 6 5 5 5 4 3 3 4 3 2 2 2
7 7 5 6 4 5 5 5 5 6 6 6 6 6 4 4 6 5 5 6 9 8 5 4 5 5 4 3 3 6 6 6 6 6 5 4 2 3 4 3 3 3 3
6 4 5 3 4 3 3 2 3 2 2 2 2 1 3 5 7 8 9 7 7 6 5 3 3 3 5 5 4 5 5 5 7 6 6 6 5 5 4 3 2 3 3
5 5 5 4 4 3 3 3 1 2 5 4 2 4 2 6 10 10 13 13 12 15 4 4 5 5 6 7 7 6 6 8 6 6 6 7 6 7 6 4 3 4 5
5 6 4 4 3 4 3 3 2 2 2 2 3 3 6 8 11 10 11 11 9 10 5 5 7 8 9 7 6 6 7 7 5 6 6 6 6 5 5 6 6 5 5
5 8 4 3 3 1 0 2 2 0 1 2 4 3 1 5 8 9 2 10 3 5 7 8 9 7 6 7 7 7 7 5 7 6 7 7 7 6 6 7 7 7 6
4 3 3 3 2 0 2 1 0 1 2 4 2 2 4 3 4 4 6 3 6 7 7 6 5 6 5 6 7 7 8 8 7 6 7 7 7 7 8 8 8 9 6
1 3 3 3 1 2 0 1 1 2 4 4 4 4 2 2 3 3 4 4 5 5 6 7 5 4 5 4 4 5 5 7 8 8 9 8 8 9 9 9 9 8 9
2 2 1 1 2 2 1 1 2 4 5 5 6 6 7 5 5 4 4 5 6 6 5 6 5 6 6 6 5 5 7 10 9 9 9 8 9 9 9 9 10 10 9
3 3 3 2 1 2 2 2 2 4 6 7 7 5 8 5 5 6 6 6 6 6 6 5 5 6 7 8 8 8 9 10 9 9 10 10 9 11 10 10 10 10 11
2 4 4 2 2 2 4 3 4 4 5 6 7 7 4 4 4 4 4 4 4 6 6 7 8 8 7 8 8 10 11 10 10 10 11 11 10 10 11 11 11 11 10
3 4 4 3 3 3 3 4 3 5 6 7 7 7 6 4 5 5 4 4 4 5 5 6 6 10 9 9 9 10 10 10 9 10 13 9 9 10 10 11 11 14 12
4 3 4 2 0 3 3 5 6 6 7 6 7 7 8 7 7 6 6 5 4 4 6 4 3 6 8 11 12 14 12 10 12 11 8 12 13 13 12 12 12 10 11
5 5 4 5 6 6 6 6 5 6 7 7 7 7 6 6 6 6 6 6 5 4 5 3 3 5 6 6 8 10 8 6 6 9 8 10 9 7 6 7 7 7 7
Wind_Direction
148 149 146 157 140 130 126 124 125 129 148 132 143 107 100 88 74 88 89 72 71 29 30 52 56 54 102 122 129 122 115 98 116 83 86 57 64 85 82 79 80 83 90
150 151 150 134 124 109 117 119 125 131 133 135 106 92 88 77 73 89 96 74 69 54 31 47 47 66 79 98 115 103 103 102 120 129 119 99 76 80 86 86 78 79 93
153 138 142 139 145 130 127 118 114 120 119 119 111 105 93 72 67 68 77 66 60 50 45 50 60 90 89 100 107 111 108 108 123 139 120 108 100 101 88 82 82 71 84
144 139 149 157 165 146 151 147 136 136 126 121 117 128 125 114 93 89 92 86 71 56 46 51 50 73 102 116 114 119 122 121 124 122 112 117 99 101 90 128 108 104 98
142 150 157 164 154 142 139 144 135 141 144 137 128 132 157 173 154 128 104 97 92 69 47 43 44 74 97 120 137 125 127 123 130 128 120 116 124 154 161 163 122 132 100
165 157 147 150 139 144 152 150 149 152 150 137 136 148 186 191 174 170 135 108 87 84 68 54 57 62 72 94 118 120 133 144 145 138 140 154 155 162 148 159 140 147 157
155 156 160 167 155 166 177 162 169 168 159 186 160 155 180 214 233 193 158 142 127 102 84 59 69 70 89 100 101 109 106 83 106 148 161 166 162 173 153 154 154 149 174
148 166 164 167 175 169 168 185 195 171 169 174 218 187 161 184 216 175 152 152 144 145 146 118 120 116 107 119 112 102 86 73 96 150 171 162 156 159 157 150 151 122 94
177 186 182 176 175 180 191 189 187 166 189 204 188 193 208 181 183 180 157 155 144 146 145 152 165 155 126 115 122 117 105 74 60 85 95 125 146 145 151 141 153 159 135
177 212 175 192 176 206 205 187 153 155 204 211 214 206 205 202 183 187 176 165 170 179 178 184 197 193 165 152 142 141 128 134 131 117 99 75 91 143 163 192 167 174 141
144 192 185 203 204 202 202 187 182 169 169 197 205 224 221 205 203 190 198 189 193 185 198 207 211 201 179 172 164 165 161 150 139 127 123 116 106 117 140 158 186 181 178
199 200 200 207 208 178 182 185 177 167 195 203 215 222 221 208 204 213 208 218 185 190 202 206 208 197 190 179 171 161 143 134 145 147 151 157 156 159 159 154 141 157 213
194 199 214 216 204 195 187 179 176 180 188 214 217 228 212 215 219 214 207 222 226 219 221 204 191 187 186 189 199 166 158 162 165 178 188 197 188 164 143 141 119 95 98
197 192 169 224 205 183 203 182 191 201 200 218 220 232 215 209 218 207 211 212 226 226 217 183 183 168 180 182 154 183 191 185 190 204 211 211 157 184 188 172 175 178 186
146 136 147 152 155 131 95 128 165 95 129 211 204 239 242 235 233 212 197 205 208 205 142 131 170 180 196 199 200 195 198 198 209 215 219 218 206 187 188 175 169 171 204
124 126 109 134 138 145 173 143 160 134 164 176 210 196 274 279 303 250 217 222 191 155 144 191 194 199 199 202 199 193 202 205 210 204 207 195 191 192 180 174 180 205 199
130 107 117 135 168 168 187 142 168 176 252 311 322 296 230 263 300 290 251 221 193 153 199 198 206 202 214 208 203 193 200 208 186 196 195 195 198 199 173 198 202 206 211
115 133 129 143 162 175 127 206 172 146 317 305 218 244 300 326 313 300 242 124 136 248 214 209 210 205 204 209 201 205 209 193 204 204 202 201 200 194 187 206 206 206 210
117 124 141 125 75 188 215 214 103 243 250 260 272 217 175 63 3 352 196 237 216 216 222 225 209 196 207 209 222 205 208 200 203 199 208 202 199 196 209 211 206 204 199
208 168 166 123 155 241 333 344 315 276 272 267 264 265 152 150 211 190 200 241 255 232 212 222 224 223 201 207 217 207 213 216 211 210 219 213 208 201 213 211 207 205 207
208 229 171 171 212 216 204 303 313 286 281 278 274 263 215 219 254 240 232 218 237 237 234 231 226 215 217 216 210 218 215 223 219 218 217 217 215 213 212 214 214 212 216
219 211 214 232 276 282 285 266 246 266 275 282 285 266 218 231 242 254 256 249 241 241 245 233 238 232 219 214 214 218 217 227 227 220 224 224 218 219 213 211 214 218 221
236 239 238 224 205 255 266 264 276 285 294 305 304 303 282 267 268 264 261 258 256 259 250 251 252 256 241 236 231 234 236 229 227 220 223 224 215 216 213 213 214 217 215
317 286 248 224 203 222 282 311 348 23 13 10 4 357 345 324 314 321 305 291 283 281 281 279 274 276 282 268 256 245 242 240 231 226 224 222 218 216 217 219 216 219 221
315 278 238 233 133 67 45 47 51 51 47 35 33 32 29 36 42 34 26 27 35 47 53 46 27 347 323 305 285 275 271 247 238 245 226 218 220 210 217 226 215 213 214
347 0 47 82 85 81 78 77 63 59 61 59 57 53 49 38 39 37 36 40 35 25 27 15 1 23 16 7 349 337 313 285 257 242 246 253 237 210 206 209 175 144 130